Location: ??
(35.4032°N, 139.3073°E)
Time: 14:24:29
(UTC+00:00)

ARIANE 5 R/B - Pass Details

Date: 13 April 2024
Orbit: 747 x 793 km, 98.8° (Epoch: 28 May)

Event Time Altitude Azimuth Distance (km) Brightness Sun altitude
Rises 19:32:13 0° 16° (NNE) 3,299 6.3 -8.6°
Reaches altitude 10° 19:34:35 10° 19° (NNE) 2,366 5.6 -8.2°
Maximum altitude 19:39:47 68° 102° (ESE) 851 3.0 -7.1°
Drops below altitude 10° 19:44:57 10° 185° (S) 2,343 4.8 -6.1°
Sets 19:47:16 0° 188° (S) 3,264 5.5 -5.7°
